Regional Weather Roundup
Issued by NWS

Home | Current Version | Previous Version | Graphics & Text | Print | Product List | Glossary On
Versions: 1 2 3 4 5 6 7 8 9 10 11 12 13 14 15 16 17 18 19 20 21 22 23 24 25 26 27 28 29 30 31 32 33 34 35 36 37 38 39 40 41 42 43 44 45 46 47 48 49 50
000
ASUS43 KTOP 030359
RWRKS

WEATHER ROUNDUP FOR KANSAS
NATIONAL WEATHER SERVICE GOODLAND KS
1100 PM CDT SAT MAY 02 2015

NOTE:  "FAIR" INDICATES FEW OR NO CLOUDS BELOW 12,000 FEET WITH NO
SIGNIFICANT WEATHER AND/OR OBSTRUCTIONS TO VISIBILITY.

KSZ001>006-013>018-027>032-041>047-030500-
NORTHWEST KANSAS

CITY           SKY/WX    TMP DP  RH WIND       PRES   REMARKS
GOODLAND       CLOUDY    69  41  36 W17       29.88R
HAYS           PTCLDY    72  48  43 S21G26    29.79S
HILL CITY      MOCLDY    73  48  41 S13G21    29.78R
RUSSELL        PTCLDY    71  51  49 S18       29.78R
$$

KSZ061>065-074>080-084>089-030500-
SOUTHWEST KANSAS

CITY           SKY/WX    TMP DP  RH WIND       PRES   REMARKS
DODGE CITY     CLOUDY    69  48  47 S17       29.84R
ELKHART          N/A     67  42  40 NW8         N/A
GARDEN CITY    CLOUDY    66  44  45 SW6       29.85R
GREAT BEND     MOCLDY    72  52  49 S23       29.81
LIBERAL        CLOUDY    72  45  37 S15       29.87S
$$

KSZ066>073-081>083-090>101-030500-
SOUTHEAST KANSAS

CITY           SKY/WX    TMP DP  RH WIND       PRES   REMARKS
CHANUTE        CLEAR     66  53  63 S12       29.93S
COFFEYVILLE    LGT RAIN  65  53  65 S8        29.94S
HUTCHINSON     PTCLDY    70  54  56 S13       29.85
MEDICINE LODGE   N/A     68  55  63 S8        29.87R
NEWTON         PTCLDY    66  52  59 S12       29.89S
PARSONS        CLEAR     68  53  58 S7        29.95R
WICHITA INTL   PTCLDY    69  54  58 S14       29.87S
WICHITA JABRA  CLEAR     67  54  63 S14       29.87F
WINFIELD       CLEAR     67  55  65 S12       29.91S
$$

KSZ007>012-019>026-033>040-048>060-102>105-030500-
NORTHEAST KANSAS

CITY           SKY/WX    TMP DP  RH WIND       PRES   REMARKS
CONCORDIA      PTCLDY    71  55  56 S21       29.78S
EMPORIA        PTCLDY    66  53  63 S13       29.88S
LAWRENCE       PTCLDY    64  53  67 SE8       29.89F
MANHATTAN      PTCLDY    70  53  54 S10       29.82F
OLATHE IND     PTCLDY    64  53  67 S10       29.92S
OLATHE EXE     PTCLDY    64  54  69 S10       29.91S
SALINA         MOCLDY    72  54  53 S15G25    29.80S
TOPEKA BILLARD MOCLDY    68  53  58 S9        29.87F
TOPEKA FORBES  MOCLDY    69  54  58 S14       29.87S
$$


USA.gov is the U.S. government's official web portal to all federal, state and local government web resources and services.